www.pogodaiklimat.ru

Погода и климат >> Архив погоды >> Мексика >> Rio Verde


ПОГОДА в Rio Verde

  • Прогноз погоды в Rio Verde
  • Монитор погоды в Rio Verde
  • Климат города

АРХИВ ПОГОДЫ в Rio Verde

Время (UTC), дата Ветер
(напр.,м/с)
 
Видим.   Явления Облачность Т
(С)
Тd
(С)
f
(%)
Тe
(С)
Тes
(С)
Комфортность P
(гПа)
Po
(гПа)
Тmin
(С)
Tmax
(С)
R
(мм)
R24
(мм)
S
(см)
00 14.05 Ю 4 20 км 8/0
[As trans]
+27.4 +21.1 69 +35 +35 очень
душно
1006.1 901.1 +17.5 +36.3
03 14.05 Ю 2 10 км 8/0
[As trans]
+25.2 +19.2 69 +30 +30 душно 1011.8 904.0
06 14.05 В 3 10 км ясно +24.0 +19.4 75 +29 +29 душно 1013.0 904.7 +17.5 +36.3
12 14.05 штиль 0 12 км ясно +21.2 +19.4 89 +26 +26 душно 1009.5 902.2 +20.6 +36.3
15 14.05 штиль 0 18 км 4/4 630 м
[Cu hum]
+24.2 +20.6 80 +30 +37 очень
душно
1010.5 902.8
18 14.05 штиль 0 20 км 3/3 700 м
[Cu hum]
+30.6 +23.3 65 +41 +61 опасность
перегрева
1008.1 901.1 +20.6 +31.4
21 14.05 В 1 25 км ясно +35.0 +18.6 38 +39 +58 опасность
солнечного
удара
1005.9 900.0
00 15.05 В 1 25 км 8/0
[Ac trans]
+29.2 +19.1 55 +35 +36 очень
душно
1004.4 899.5 +20.6 +36.0
03 15.05 штиль 0 10 км 10/0
[As op]
+25.8 +20.5 73 +32 +32 очень
душно
1006.0 901.3
06 15.05 штиль 0 10 км 10/0
[As op]
+24.2 +20.6 80 +30 +30 очень
душно
1007.6 902.3 +20.6 +36.0
12 15.05 штиль 0 10 км 9/0 2000 м
[Ac cuf]
+20.8 +19.5 92 +25 +25 комфорт 1007.8 900.7 +20.2 +36.0
15 15.05 штиль 0 20 км ясно +24.7 +21.1 80 +31 +43 очень
душно
1009.9 902.4
18 15.05 штиль 0 20 км 3/3 700 м
[Cu hum]
+30.6 +23.4 65 +41 +61 опасность
перегрева
1007.7 900.8 +20.2 +31.5
21 15.05 штиль 0 25 км ясно +35.4 +18.4 37 +40 +61 опасность
солнечного
удара
1006.2 900.3
00 16.05 ЮВ 1 25 км ясно +29.4 +20.6 59 +36 +38 очень
душно
1004.7 899.9 +20.2 +36.5
03 16.05 штиль 0 10 км 9/0
[As op]
+25.6 +20.9 75 +32 +32 очень
душно
1004.6 900.0
06 16.05 ЮВ 2 10 км 10/0
[As op]
+24.2 +20.3 79 +30 +30 очень
душно
1006.5 901.3 +20.2 +36.5
12 16.05 штиль 0 12 км 9/0 2000 м
[Ac cuf]
+21.9 +19.9 88 +28 +28 душно 1008.1 901.1 +21.3 +36.5
15 16.05 штиль 0 18 км 6/0
[As op]
+24.1 +20.8 82 +30 +36 очень
душно
1010.3 902.8
18 16.05 штиль 0 20 км 3/3 720 м
[Cu hum]
+30.6 +22.8 63 +40 +61 опасность
солнечного
удара
1007.7 900.8 +21.3 +31.4
21 16.05 штиль 0 25 км ясно +34.8 +23.8 53 +37 +58 опасность
солнечного
удара
1006.5 938.1
00 17.05 ЮВ 1 25 км 5/0
[Ac cuf]
+28.4 +23.3 74 +38 +40 очень
душно
1007.2 902.0 +21.3 +35.5
03 17.05 В 6 10 км 10/0 2000 м
[As op]
+25.6 +20.6 74 +32 +32 очень
душно
1006.1 680.0
06 17.05 штиль 0 10 км 10/0
[As op]
+24.0 +21.0 83 +30 +30 очень
душно
1006.6 901.3 +21.3 +35.5
12 17.05 штиль 0 12 км 9/0
[As op]
+21.2 +19.8 92 +26 +26 душно 1008.5 901.3 +20.6
15 17.05 штиль 0 20 км 3/3 630 м
[Cu hum]
+24.6 +21.4 82 +31 +39 очень
душно
1009.8 902.2
18 17.05 штиль 0 25 км 3/3 700 м
[Cu hum]
+30.8 +23.2 64 +41 +62 опасность
перегрева
1007.3 900.5 +20.2 +31.7
21 17.05 ЮВ 1 25 км ясно +35.2 +13.2 27 +36 +54 опасность
солнечного
удара
1005.9 900.2
00 18.05 ЮВ 2 25 км ясно +30.0 +17.1 46 +34 +36 очень
душно
1004.5 899.8 +20.2 +36.5
03 18.05 штиль 0 10 км 4/0
[Ac trans]
+25.4 +21.0 77 +32 +32 очень
душно
1004.4 900.0
06 18.05 штиль 0 10 км 5/0
[Ac trans]
+24.2 +20.3 79 +30 +30 очень
душно
1006.2 901.2 +20.2 +36.5
15 18.05 штиль 0 15 км 5/0
[Ac trans]
+24.7 +21.4 82 +31 +40 очень
душно
1007.2 899.9
18 18.05 штиль 0 20 км ясно +30.9 +24.8 70 +44 +73 опасность
перегрева
1004.3 897.7 +20.2 +31.7
21 18.05 штиль 0 25 км ясно +37.2 +20.0 37 +43 +64 опасность
перегрева
1002.0 896.7
00 19.05 В 1 20 км 8/0
[Ac trans]
+30.0 +23.4 68 +41 +42 опасность
перегрева
999.9 895.8 +20.2 +38.5
03 19.05 ЮВ 3 10 км 5/0
[Ac cuf]
+25.4 +21.9 81 +33 +33 очень
душно
1000.5 896.6
06 19.05 В 4 10 км в посл. час морось 9/0 2000 м
[As op]
+23.6 +21.1 86 +30 +30 очень
душно
1004.9 900.2 0.3
12 19.05 Ю 1 10 км ясно +19.2 +19.2 100 +22 +22 комфорт 1010.1 900.4 +18.6 +38.5
15 19.05 В 1 15 км 8/0
[Ac trans]
+23.1 +19.0 78 +29 +35 очень
душно
1009.7 901.4
18 19.05 Ю 1 25 км ясно +31.3 +18.4 46 +36 +61 опасность
солнечного
удара
1004.7 899.7 +18.6 +32.0
00 20.05 ЮВ 6 25 км 4/0
[Ac trans]
+29.9 +20.7 58 +37 +38 очень
душно
1001.5 897.1 +18.6 +39.6
03 20.05 ЮВ 2 10 км ясно +24.5 +17.9 67 +29 +29 душно 1008.3 900.9
06 20.05 ЮВ 3 10 км слабая морось 10/4 600 м
[Frnb As op]
+23.9 +19.8 78 +29 +29 душно 1010.1 902.0 0.0
12 20.05 ЮВ 2 10 км 8/0
[As trans]
+21.6 +19.6 88 +27 +27 душно 1010.9 901.9 +20.2 +39.6
15 20.05 В 2 15 км 8/0
[Ac trans]
+25.0 +19.6 72 +30 +35 душно 1011.5 903.7
18 20.05 Ю 3 20 км 8/4 840 м
[Sc diur, vesp Ac trans]
+32.1 +23.3 60 +43 +49 опасность
перегрева
1009.5 902.6 +20.2 +33.0

 

Местоположение метеостанции Rio Verde (Мексика): широта 21.93 долгота -99.98 высота над уровнем моря 983 м.

В архиве по умолчанию представлена погода в Rio Verde за последнюю неделю. Архивные данные за месяц целиком и за предыдущие месяцы, начиная с января 2011 года, Вы можете получить, выбрав интересующий диапазон дат из раскрывающегося списка и нажав кнопку "Ввод!".


*Определитесь, кто Вы:
робот инопланетянин человек

Внимание! Время в таблицах - всемирное. Для получения местного времени необходимо прибавить поправку, которая в Rio Verde равна -6 ч.

Смотрите также архив погоды в соседних городах и на ближайших метеорологических станциях:

Погода в San Luis Potosi (Мексика) (99 км)
Погода в Tamuin (Мексика) (126 км)
Погода в Matlapa (Мексика) (139 км)
Погода в Queretaro (Мексика) (156 км)
Погода в Guanajuato (Мексика) (163 км)
Погода в Lagos De Moreno (Мексика) (211 км)
Погода в Ciudad Victoria (Мексика) (218 км)
Погода в Tampico (Мексика) (222 км)
Погода в Pachuca (Мексика) (237 км)
Погода в Aguascalientes (Мексика) (240 км)

Пояснения к столбцам:

Ветер - указаны скорость ветра в м/с - средняя за 10 мин, порывы в срок и между сроками (в фигурных скобках) и направление, откуда дует ветер: С - северный, СВ - северо-восточный, В - восточный, ЮВ - юго-восточный, Ю - южный, ЮЗ - юго-западный, З - западный, СЗ - северо-западный.
Видимость - горизонтальная дальность видимости в метрах или километрах. При видимости от 1 до 10 км при отсутствии осадков обычно наблюдается дымка, при ухудшении видимости до 1 км и менее - туман. В сухую погоду видимость может ухудшаться дымом, пылью или мглою.
Явления - указаны атмосферные явления, наблюдавшиеся в срок или в последний час перед сроком; фигурными скобками обозначены явления, наблюдавшиеся между сроками (за 1-3 часа до срока); квадратными скобками обозначены град или гололедные отложения с указанием их диаметра в мм.
Облачность - указаны через наклонную черту общая и нижняя облачность в баллах и высота нижней границы облаков в метрах; квадратными скобками обозначены формы облаков: Ci - перистые, Cs - перисто-слоистые, Cc - перисто-кучевые, Ac - высококучевые, As - высокослоистые, Sc - слоисто-кучевые, Ns - слоисто-дождевые, Cu - кучевые, Cb - кучево-дождевые. Подробнее классификацию облаков см. в Атласе облаков (PDF).
T - Температура воздуха - температура, измеренная на высоте 2 м над землей.
Td - Температура точки росы - температура, при понижении до которой содержащийся в воздухе водяной пар достигнет насыщения.
f - Относительная влажность воздуха - влажноcть воздуха, измеренная на высоте 2 м над землей.
Te - Эффективная температура - температура, которую ощущает одетый по сезону человек в тени. Характеристика душности погоды. При расчете учитывается влияние влажности воздуха и скорости ветра на теплоощущения человека.
Tes - Эффективная температура на солнце - температура, которую ощущает человек, с поправкой на солнечный нагрев. Характеристика знойности погоды. Зависит от высоты солнца над горизонтом, облачности и скорости ветра. Ночью, в пасмурную погоду, а также при ветре 12 м/с и более поправка равна нулю.
P - Атмосферное давление - приведенное к уровню моря атмосферное давление.
Po - Атмосферное давление - измеренное на уровне метеостанции атмосферное давление.
Tmin - Минимальная температура - минимум температуры воздуха на высоте 2 м над землей.
Tmax - Максимальная температура - максимум температуры воздуха на высоте 2 м над землей.
R - Количество осадков - Количество выпавших осадков за период времени, мм. При наведении курсора мыши на число - период времени, за который выпало указанное количество осадков.
R24 - Количество осадков - Количество выпавших осадков за 24 часа, мм.
S - Снежный покров - Высота снежного покрова, см. При наведении курсора мыши на число - состояние снежного покрова и степень покрытия местности в баллах.